Regional Weather Roundup
Issued by NWS Grand Forks, ND

Home | Current Version | Previous Version | Text Only | Print | Product List | Glossary Off
Versions: 1 2 3 4 5 6 7 8 9 10 11 12 13 14 15 16 17 18 19 20 21 22 23 24 25 26 27 28 29 30 31 32 33 34 35 36 37 38 39 40 41 42 43 44 45 46 47 48 49 50

000
ASUS43 KFGF 200710
RWRFGF
PRAIRIE TO PINES  WEATHER ROUNDUP
NATIONAL WEATHER SERVICE EASTERN NORTH DAKOTA/GRAND FORKS ND
100 AM CST TUE FEB 20 2018

 **SATELLITE DATA USED TO AUGMENT SKY COVER AT AUTOMATED STATIONS**
 *****  WEATHER ACROSS EASTERN NORTH DAKOTA  *****

CITY           SKY/WX    TMP DP  RH WIND       PRES   REMARKS
GRAND FORKS    CLOUDY     4   0  83 N16       30.14F FOG     WCI -15
GRAND FRKS AFB CLOUDY     3  -2  78 N13       30.15F WCI -14
GRAND FRKS NWS   N/A      3   0  88 N3        30.11F
DEVILS LAKE    FLURRIES   2  -2  83 N8        30.14F WCI -12
FARGO          LGT SNOW   6   2  83 N17       30.09R FOG     WCI -13
WAHPETON ARPT  CLOUDY     9   3  78 N14       30.05S WCI  -8
$$

 ***** WEATHER ACROSS CENTRAL AND WESTERN NORTH DAKOTA  *****

CITY           SKY/WX    TMP DP  RH WIND       PRES   REMARKS
BISMARCK       CLOUDY     4  -2  76 N9        30.14R WCI -10
MINOT          LGT SNOW   5   0  79 W3        30.15R
JAMESTOWN      CLOUDY     3  -1  83 N14       30.12R FOG     WCI -15
MINOT AFB      FLURRIES   4  -1  81 W3        30.14R
GARRISON         N/A      3  -1  83 NW7       30.12S WCI  -9
WILLISTON      CLOUDY     2  -2  83 W5        30.13F WCI  -8
DICKINSON      LGT SNOW  -1  -5  82 W5        30.05S FOG     WCI -11
HETTINGER      LGT SNOW   0  -5  79 N9        30.03F WCI -15
$$

 *****  OTHER AIRPORT OBSERVATIONS IN OUR AREA  *****

CITY           SKY/WX    TMP DP  RH WIND       PRES   REMARKS
WALHALLA       FLURRIES   3  -6  66 N6        30.19F WCI  -8
GRAFTON AIRPOR PTSUNNY    3  -2  78 N13       30.20F HAZE    WCI -14
VALLEY CITY AR CLOUDY     1   0  92 N12       30.12R WCI -15
CANDO          CLOUDY     1  -2  85 CALM      30.15F
CAVALIER APRT  LGT SNOW   3  -6  66 N7        30.19F WCI  -9
GWINNER        FOG        3   0  85 N20       30.03F VSB 1   WCI -18
SHEYENNE NWR     N/A      4   0  85 N10       29.95S WCI -11
ROLLA          FLURRIES   3  -2  78 NW3       30.10F
 ***** THE ABOVE OBSERVATIONS ARE NON NWS ARE NOT QUALITY
       CONTROLLED AND MAY MIS-REPORT RAIN FOR SNOW...
$$

  *****  WEATHER ACROSS NORTHERN MINNESOTA  *****

CITY           SKY/WX    TMP DP  RH WIND       PRES   REMARKS
FLAG ISLAND    CLOUDY     3  -8  60 NE9       30.14F WCI -11
WARROAD        LGT SNOW   5  -2  72 NE8       30.14F WCI  -8
ROSEAU         NOT AVBL
HALLOCK        FLURRIES   3  -2  78 N8        30.17F WCI -10
THF RVR FALLS  LGT SNOW   5   0  79 N10       30.10F WCI -10
BAUDETTE       LGT SNOW   5  -1  76 NE9       30.10F WCI  -9
WASKISH        LGT SNOW   7   1  78 NE5       30.08S WCI  -2
CROOKSTON      LGT SNOW   5   1  85 N13       30.13F WCI -12
STEPHEN NDAWN    N/A      3   0  85 N12         N/A  WCI -13
GREENBUSH NDAW   N/A      3   0  85 N9          N/A  WCI -11
$$
  *****  WEATHER ACROSS CENTRAL AND WEST MINNESOTA  *****

CITY           SKY/WX    TMP DP  RH WIND       PRES   REMARKS
FOSSTON        LGT SNOW   3  -2  78 N10       30.04F VSB 1   WCI -12
BEMIDJI        LGT SNOW   6   2  82 NE13      30.01F VSB 1   WCI -10
PARK RAPIDS    LGT SNOW   8   3  80 N10       29.98F VSB 3/4 WCI  -6
ELBOW LAKE     LGT SNOW  10   7  87 N7        30.03R WCI   0
WADENA         LGT SNOW   9   5  85 N12       29.96F VSB 1   WCI  -6
DETROIT LAKES  LGT SNOW  10   7  85 NE8       30.01R VSB 3/4 WCI  -1
MOORHEAD       LGT SNOW   7   1  78 N14       30.08R WCI -10
FERGUS FALLS   LGT SNOW  10   7  85 N6        30.05R WCI   1
MORRIS MN      LGT SNOW  12   9  85 N13       29.95F WCI  -3
STAPLES        LGT SNOW   9   7  92 N8        29.96F WCI  -4
$$
  *****  WEATHER ELSEWHERE ACROSS MINNESOTA  *****

CITY           SKY/WX    TMP DP  RH WIND       PRES   REMARKS
DULUTH         LGT SNOW  14  10  84 E20       29.90F VSB 3/4 WCI  -3
INTRNTL FALLS  LGT SNOW   6   0  76 NE9       30.09S WCI  -8
ELY            CLOUDY     3   0  85 CALM      30.01S
CLOQUET        LGT SNOW  16  12  86 NE10G24   29.92F WCI   3
WHEATON        LGT SNOW   7   3  85 NW15      30.02F WCI -11
BRAINERD       CLOUDY    12   5  73 NE13      29.95F WCI  -3
HIBBING        LGT SNOW   6   4  91 N8        30.00R FOG     WCI  -7
ALEXANDRIA     LGT SNOW  11   8  88 N10       29.96R FOG     WCI  -3
SAINT CLOUD    CLOUDY    14  12  92 N6        29.90S WCI   5
MINNEAPOLIS    FRZ DRZL  21  19  92 NE10G17   29.86F WCI  10
$$

  *****  WEATHER ACROSS SOUTH DAKOTA  *****

CITY           SKY/WX    TMP DP  RH WIND       PRES   REMARKS
SIOUX FALLS    LGT SNOW  13  10  88 N10       29.89R VSB 3/4 WCI   0
BROOKINGS      FLURRIES   7   3  84 N18       29.87F WCI -12
WATERTOWN      LGT SNOW   4   1  88 N17       29.89F FOG     WCI -16
HURON          LGT SNOW   5   1  83 N16G23    29.99S FOG     WCI -14
SISSETON         N/A      5   2  87 N18       29.99F WCI -15
ABERDEEN       LGT SNOW   4   0  83 N18       30.02F VSB 3/4 WCI -16
MITCHELL       LGT SNOW   8   4  83 N16       29.97R FOG     WCI -10
PIERRE         LGT SNOW   4   0  83 N18       30.02F FOG     WCI -16
MOBRIDGE       CLOUDY     4  -2  76 N14       30.04S HAZE    WCI -14
RAPID CITY     LGT SNOW  -1  -6  79 N14       29.98R WCI -20
$$

  *****  SOME WEATHER IN NEARBY STATES *****

CITY           SKY/WX    TMP DP  RH WIND       PRES   REMARKS
GLASGOW MT     CLOUDY    -4  -9  79 SW3       30.11R
GREAT FALLS MT FAIR     -13 -20  71 SW13      29.97S WCI -34
CHEYENNE WY    FAIR      -4  -9  79 N10       29.69R WCI -21
SCOTTSBLUFF NE CLOUDY     0  -7  72 NW10      29.91R HAZE    WCI -16
OMAHA NE       LGT SNOW  23  21  92 NW10      29.85F FOG     WCI  12
DES MOINES IA  FRZ DRZL  28  26  92 CALM      29.80S FOG
DAVENPORT IA   RAIN      39  37  92 SW7       29.84R FOG
CHICAGO IL     LGT RAIN  59  56  89 S16       29.80F
EAU CLAIRE WI  CLOUDY    20  18  92 NE13      29.84F WCI   7
LA CROSSE WI   CLOUDY    31  29  92 N7        29.81F FOG     WCI  24
$$

  *****  SOME NATIONAL WEATHER *****

CITY           SKY/WX    TMP DP  RH WIND       PRES   REMARKS
LA GUARDIA NY  FOG       49  48  97 S5        30.30F VSB 1/2
RALEIGH NC     FOG       51  51 100 S3        30.43F VSB 1/2
ATLANTA GA     FAIR      59  59 100 E6        30.33S
NEW ORLEANS LA FAIR      71  69  93 SE9       30.14S
OKLAHOMA CITY  CLOUDY    67  62  84 S18G28    29.73R
ALBUQUERQUE NM FLURRIES  36  32  85 NE15      29.76R
SALT LAKE CITY SNOW      25  20  81 N14       29.83R VSB 1/2 WCI  13
LOS ANGELES CA FAIR      50  17  27 N12       30.04R
BOISE ID       FAIR      15   3  59 NW15      30.01R WCI   0
SEATTLE WA     CLOUDY    30  17  58 SE9       30.21S WCI  22
$$

*** WEATHER ACROSS MANITOBA...SASKATCHEWAN AND ONTARIO ***
                ***ONTARIO***

CITY           SKY/WX    TMP DP  RH WIND       PRES   REMARKS
GERALDTON      CLOUDY    -8 -15  71 E12       30.25F WCI -27
THUNDER BAY    FLURRIES   7   0  72 NE7       30.13F WCI  -5
SIOUX LOOKOUT  NOT AVBL
TORONTO        LGT RAIN  37  37 100 VRB2      30.01R
BIG TROUT LK   PTCLDY   -22 -35  52 SE5       30.36F WCI -36
PICKLE LAKE    NOT AVBL
DRYDEN         CLOUDY     0  -9  65 NE8       30.15S WCI -15
KENORA         CLOUDY     1  -9  60 E6        30.14F WCI -10
$$
                *** MANITOBA***

CITY           SKY/WX    TMP DP  RH WIND       PRES   REMARKS
BRANDON        CLOUDY     1  -4  78 W3        30.14F
DAUPHIN        CLOUDY     1  -6  71 SW3       30.15F
ISLAND LAKE    NOT AVBL
PILOT MOUND      N/A      3  -4  72 W1          N/A
THE PAS        CLEAR     -6 -13  71 S9        30.04F WCI -22
THOMPSON       PTCLDY   -11 -18  70 VRB2      30.08F
WINNIPEG       MOCLDY     1  -8  66 NE3       30.22F
LYNN LAKE      CLEAR     -8  -9  92 S3        29.89S
CHURCHILL      FLURRIES -22 -29  69 E8        30.33S WCI -41
GILLAM         CLEAR    -17 -24  70 S7        30.22R WCI -33
$$
                ***SASKATCHEWAN***

CITY           SKY/WX    TMP DP  RH WIND       PRES   REMARKS
ESTEVAN        CLOUDY    -4  -9  77 SW8       30.12R WCI -19
KINDERSLEY     CLOUDY    -2  -8  78 SW13      29.98F WCI -21
LLOYDMINSTER   CLOUDY     7   0  72 W15       29.86F WCI -11
PRINCE ALBERT  CLEAR     -8 -13  77 SW8       29.98F WCI -23
REGINA         MOCLDY   -13 -17  84 SW9       30.07F WCI -31
YORKTON        PTCLDY    -6 -11  77 SW10      30.07F WCI -23
N. BATTLEFORD  CLOUDY     3  -6  66 SW7       29.95F WCI  -9
LA RONGE       FLURRIES   5  -2  72 SW6       29.87F WCI  -6
SASKATOON      FLURRIES  -4  -9  77 SW14      30.00F WCI -24
SWIFT CURRENT  CLEAR     -9 -17  70 W12       29.97F WCI -29
$$
NOTE: THESE ARE AUTOMATED STATIONS WITH LIMITED QUALITY CONTROL
      "FAIR" INDICATES FEW OR NO CLOUDS BELOW 12,000 FEET WITH NO
      SIGNIFICANT WEATHER AND/OR OBSTRUCTIONS TO VISIBILITY.
      SKY/WX - SKY CONDITION AND SIGNIFICANT WEATHER.
      TMP - AIR TEMPERATURE.    DP   - DEWPOINT TEMPERATURE.
      RH  - RELATIVE HUMIDITY.  PRES - PRESSURE.
      HX  - HEAT INDEX.         WCI  - WIND CHILL INDEX.
$




USA.gov is the U.S. government's official web portal to all federal, state and local government web resources and services.